Regional Weather Roundup
Issued by NWS Green Bay, WI

Home | Current Version | Previous Version | Text Only | Print | Product List | Glossary On
Versions: 1 2 3 4 5 6 7 8 9 10 11 12 13 14 15 16 17 18 19 20 21 22 23 24 25 26 27 28 29 30 31 32 33 34 35 36 37 38 39 40 41 42 43 44 45 46 47 48 49 50
000
ASUS43 KGRB 210111
RWRGRB

NORTH-CENTRAL AND NORTHEAST WISCONSIN REGIONAL WEATHER ROUNDUP
NATIONAL WEATHER SERVICE GREEN BAY WI
800 PM CDT SUN MAY 20 2018

WIZ005-009-010>012-018-019-210200-
NORTH CENTRAL WISCONSIN

CITY           SKY/WX    TMP DP  RH WIND       PRES   REMARKS
IRONWOOD       FAIR      62  33  33 N3        30.18F
MANITOWISH WTR FAIR      65  29  26 CALM      30.16F
ARBOR VITAE    FAIR      64  29  26 CALM      30.16F
EAGLE RIVER    FAIR      64  25  22 E5        30.16F
LAND O LAKES   FAIR      66  28  24 CALM      30.18F
RHINELANDER    FAIR      67  28  23 CALM      30.17F
PHILLIPS       FAIR      65  30  27 CALM      30.15F
ANTIGO         FAIR      60  33  36 SE5       30.17S
TOMAHAWK       FAIR      60  33  36 CALM      30.16F
MERRILL        FAIR      64  33  31 SE5       30.17S
$$

WIZ013-073-210200-
NORTHEAST WISCONSIN

CITY           SKY/WX    TMP DP  RH WIND       PRES   REMARKS
IRON MOUNTAIN  FAIR      65  26  23 E5        30.15F
MARINETTE      NOT AVBL
OCONTO         FAIR      54  35  48 CALM      30.19S
$$

WIZ017-030-035>037-045-210200-
CENTRAL WISCONSIN

CITY           SKY/WX    TMP DP  RH WIND       PRES   REMARKS
MEDFORD        FAIR      62  30  29 SE3       30.15S
WAUSAU         FAIR      64  28  25 E5        30.15R
MOSINEE        PTCLDY    61  32  33 E5        30.17S
MARSHFIELD     FAIR      63  34  33 SE5       30.15S
WISC RAPIDS    FAIR      62  37  39 SE6       30.17S
STEVENS POINT  NOT AVBL
WAUPACA        FAIR      61  29  29 E6        30.18S
SHAWANO        FAIR      58  31  36 SE5       30.18S
CLINTONVILLE   FAIR      58  27  30 SE5       30.19R
WAUTOMA        FAIR      60  30  32 E5        30.18S
$$

WIZ038-039-048-051-210200-
FOX VALLEY

CITY           SKY/WX    TMP DP  RH WIND       PRES   REMARKS
NWS GREEN BAY  FAIR      57  33  40 E6        30.19S
APPLETON       PTCLDY    61  14  16 E6        30.17S
OSHKOSH        FAIR      59  44  57 E6        30.18S
FOND DU LAC    FAIR      57  37  47 E6        30.18R
$$

WIZ022-050-052-210200-
EAST CENTRAL WISCONSIN

CITY           SKY/WX    TMP DP  RH WIND       PRES   REMARKS
EPHRAIM        NOT AVBL
WASHINGTON ISL NOT AVBL
STURGEON BAY   NOT AVBL
MANITOWOC      FAIR      52  24  33 NE3       30.20S
SHEBOYGAN      FAIR      49  37  63 NE8       30.19F
$$

LMZ563-521-522-541>543-210200-
LAKESHORE

STATION/POSITION TIME  TEMP    WIND        PRES    VSBY  WAVE
                       AIR SEA DIR/SP/G                  HT/PER
                 (UTC) (F)     (DEG/KT/KT) (MB)    (MI)  (FT/S)
SHEBOYGAN LKSHOR 0100   45      10/  9/ 10 1022.5F
KEWAUNEE LKSHORE 0042   51      30/  4/  7 1021.9F
NORTHPORT PIER   0040   53                 1022.0F
SISTER BAY LKSHO 0027   59     120/  7/  9   N/A
MENOMINEE LKSHOR 0036   56     170/  3/  3 1021.9F
$$



USA.gov is the U.S. government's official web portal to all federal, state and local government web resources and services.